This is the latest recevied weather packets stored in our database for station/object n3uvr. If no packets are shown the sender has not sent any weather packets the latest 10 day(s).
| Time | Temp. | Humidity | Pressure | Rain* | Wind** | Luminosity | Snow |
|---|---|---|---|---|---|---|---|
| 1777725540 | 5.56° C | 88% | 1012.2 hPa | 0 mm | - | 84 W/m² | - |
| 1777724945 | 5.56° C | 88% | 1012.3 hPa | 0 mm | - | 63 W/m² | - |
| 1777723749 | 5.56° C | 88% | 1012.4 hPa | 0 mm | - | 39 W/m² | - |
| 1777722536 | 5° C | 88% | 1012.5 hPa | 0 mm | - | 62 W/m² | - |
| 1777721927 | 5° C | 88% | 1012.3 hPa | 0 mm | - | 44 W/m² | - |
| 1777721325 | 5° C | 88% | 1012.2 hPa | 0 mm | - | 37 W/m² | - |
| 1777720732 | 5° C | 88% | 1012.1 hPa | 0 mm | - | 25 W/m² | - |
| 1777720127 | 5° C | 88% | 1011.8 hPa | 0 mm | - | 14 W/m² | - |
| 1777719537 | 5° C | 88% | 1011.8 hPa | 0 mm | - | 7 W/m² | - |
| 1777718951 | 5.56° C | 88% | 1011.8 hPa | 0 mm | - | 0 W/m² | - |
| 1777718345 | 5.56° C | 88% | 1012 hPa | 0 mm | - | 0 W/m² | - |
| 1777717743 | 5.56° C | 88% | 1011.8 hPa | 0 mm | - | 0 W/m² | - |
| 1777717121 | 5.56° C | 88% | 1011.4 hPa | 0 mm | - | 0 W/m² | - |
| 1777715313 | 5.56° C | 88% | 1010.9 hPa | 0.25 mm | - | 0 W/m² | - |
| 1777714730 | 6.11° C | 88% | 1010.8 hPa | 0.25 mm | - | 0 W/m² | - |
| 1777714156 | 6.11° C | 88% | 1010.7 hPa | 0.25 mm | - | 0 W/m² | - |
| 1777713573 | 6.67° C | 87% | 1010.6 hPa | 0.25 mm | - | 0 W/m² | - |
| 1777712335 | 6.67° C | 87% | 1010.4 hPa | 0 mm | - | 0 W/m² | - |
| 1777711733 | 6.67° C | 87% | 1010.2 hPa | 0 mm | - | 0 W/m² | - |
| 1777711147 | 7.22° C | 87% | 1010.2 hPa | 0.25 mm | - | 0 W/m² | - |
| 1777710550 | 7.22° C | 87% | 1010.1 hPa | 0.25 mm | - | 0 W/m² | - |
| 1777709955 | 7.22° C | 87% | 1010 hPa | 0.25 mm | - | 0 W/m² | - |
| 1777709350 | 7.78° C | 87% | 1009.8 hPa | 0.51 mm | - | 0 W/m² | - |
| 1777708748 | 7.78° C | 86% | 1009.9 hPa | 0.76 mm | - | 0 W/m² | - |
| 1777708145 | 7.78° C | 86% | 1009.9 hPa | 1.02 mm | - | 0 W/m² | - |
* Rain latest hour (hover to see other rain measurements)
** Current wind speed in m/s (hover to see current wind gust speed)